STARLINK-5461 (55672 NORAD) Tracking and Keplerian Element Data

This shows tracking and keplerian element data for the satellite.

Feedback or suggestion? Click here.




ElementValue
Catalog55672
NameSTARLINK-5461
Epoch Orbit130
Epoch Day62.91667824
Epoch Year2023
RAAN110.1799
Inclination70
Eccentricity0.0003514
Argument of Perigee270.2912
Mean Anonmoly342.1579
Mean Motion15.75313663
Decay Rate-0.0097318
L11 55672U 23021AW 23062.91667824 -.00973180 00000+0 -72111-2 0 9992
L22 55672 70.0000 110.1799 0003514 270.2912 342.1579 15.75313663 1303



Live tracking and technical data element details for STARLINK-5461 (NORAD 55672). STARLINK-5461 can be tracked NOW for your location showing map with azimuth and elevation plus other details from your city location.







IsCatalogInMostPopularTable: catalog: 55672, numindb: 1
Update: records affected: 1



GetName: 55672 STARLINK-5461

Hit Count: updated at: Mon, 20 Mar 2023 12:30:51 GMT